EVA182 RCKH-RJBB

Flight info

Callsign EVA182
Flight time 2h 19m
Altitude 37000
Route TNN2G TNN W4 ANLOT M750 MADOG Y53 NIXOV
Aircraft A321/M-SDE3FGHIRWY/LB1

Departure

Time 2026-04-25 01:48
Airport Kaohsiung International Airport (RCKH)

Arrival

Time 2026-04-25 04:07
Airport Kansai International Airport (RJBB)
Time Latitude Longitude Altitude Speed Heading
2026-04-25 01:12 22.57275 120.33872 29 ft 0 kts 92°
2026-04-25 01:41 22.57275 120.33866 29 ft 2 kts 92°
2026-04-25 01:41 22.57276 120.33850 29 ft 2 kts 91°
2026-04-25 01:42 22.57276 120.33834 29 ft 2 kts 92°
2026-04-25 01:42 22.57277 120.33818 29 ft 2 kts 91°
2026-04-25 01:42 22.57277 120.33807 29 ft 1 kts 92°
2026-04-25 01:42 22.57275 120.33791 29 ft 2 kts 62°
2026-04-25 01:43 22.57266 120.33778 29 ft 2 kts 37°
2026-04-25 01:43 22.57252 120.33771 30 ft 2 kts 11°
2026-04-25 01:43 22.57245 120.33770 30 ft 1 kts 357°
2026-04-25 01:43 22.57241 120.33770 30 ft 0 kts
2026-04-25 01:45 22.57242 120.33770 30 ft 0 kts
2026-04-25 01:45 22.57271 120.33771 29 ft 6 kts
2026-04-25 01:45 22.57325 120.33772 28 ft 9 kts
2026-04-25 01:45 22.57392 120.33765 28 ft 10 kts 331°
2026-04-25 01:46 22.57425 120.33697 28 ft 10 kts 292°
2026-04-25 01:46 22.57477 120.33633 28 ft 11 kts 317°
2026-04-25 01:46 22.57541 120.33572 28 ft 12 kts 319°
2026-04-25 01:46 22.57610 120.33511 28 ft 12 kts 332°
2026-04-25 01:47 22.57696 120.33499 28 ft 10 kts 359°
2026-04-25 01:47 22.57741 120.33503 28 ft 5 kts 33°
2026-04-25 01:47 22.57751 120.33548 28 ft 7 kts 91°
2026-04-25 01:47 22.57745 120.33768 28 ft 64 kts 91°
2026-04-25 01:48 22.57722 120.34518 32 ft 131 kts 90°
2026-04-25 01:48 22.57691 120.35679 118 ft 173 kts 91°
2026-04-25 01:48 22.57632 120.36960 793 ft 169 kts 92°
2026-04-25 01:48 22.57400 120.38135 1569 ft 161 kts 123°
2026-04-25 01:49 22.56482 120.38761 2113 ft 162 kts 173°
2026-04-25 01:49 22.55358 120.38532 2488 ft 171 kts 207°
2026-04-25 01:49 22.54277 120.37921 2838 ft 185 kts 209°
2026-04-25 01:49 22.53075 120.37257 3195 ft 201 kts 207°
2026-04-25 01:50 22.51768 120.36570 3560 ft 217 kts 206°
2026-04-25 01:50 22.50333 120.35847 3888 ft 238 kts 206°
2026-04-25 01:50 22.48781 120.35083 4456 ft 247 kts 206°
2026-04-25 01:50 22.47216 120.34296 5270 ft 246 kts 211°
2026-04-25 01:51 22.46014 120.33055 6003 ft 243 kts 244°
2026-04-25 01:51 22.45634 120.31303 6740 ft 241 kts 274°
2026-04-25 01:51 22.46130 120.29549 7249 ft 253 kts 297°
2026-04-25 01:51 22.46974 120.27816 7683 ft 268 kts 295°
2026-04-25 01:52 22.47839 120.25998 8260 ft 276 kts 295°
2026-04-25 01:52 22.48709 120.24140 9008 ft 277 kts 294°
2026-04-25 01:52 22.49571 120.22284 9739 ft 279 kts 294°
2026-04-25 01:52 22.50434 120.20417 10409 ft 282 kts 294°
2026-04-25 01:53 22.51398 120.18511 10765 ft 300 kts 303°
2026-04-25 01:53 22.53013 120.16952 11117 ft 321 kts 327°
2026-04-25 01:53 22.55163 120.16206 11704 ft 333 kts 351°
2026-04-25 01:53 22.57494 120.16257 12360 ft 338 kts
2026-04-25 01:54 22.59865 120.16453 12950 ft 342 kts
2026-04-25 01:54 22.62243 120.16654 13537 ft 345 kts
2026-04-25 01:54 22.64674 120.16854 14136 ft 348 kts
2026-04-25 01:54 22.67089 120.17049 14714 ft 350 kts 360°
2026-04-25 01:55 22.69525 120.17239 15280 ft 352 kts 360°
2026-04-25 01:55 22.71975 120.17428 15814 ft 355 kts 359°
2026-04-25 01:55 22.74449 120.17617 16357 ft 357 kts 359°
2026-04-25 01:55 22.76934 120.17806 16872 ft 359 kts 359°
2026-04-25 01:56 22.79436 120.17996 17373 ft 362 kts 360°
2026-04-25 01:56 22.81980 120.18189 17868 ft 365 kts 359°
2026-04-25 01:56 22.84505 120.18383 18348 ft 367 kts 359°
2026-04-25 01:56 22.87093 120.18581 18801 ft 370 kts 359°
2026-04-25 01:57 22.92275 120.18977 19701 ft 375 kts 359°
2026-04-25 01:57 22.94874 120.19176 20165 ft 378 kts 359°
2026-04-25 01:57 22.97520 120.19377 20611 ft 380 kts 358°
2026-04-25 01:58 23.00162 120.19581 21057 ft 382 kts 358°
2026-04-25 01:58 23.02810 120.19783 21489 ft 384 kts 358°
2026-04-25 01:58 23.05501 120.19989 21921 ft 386 kts 358°
2026-04-25 01:58 23.08187 120.20191 22326 ft 389 kts 358°
2026-04-25 01:59 23.10942 120.20429 22763 ft 393 kts 359°
2026-04-25 01:59 23.13674 120.20886 23137 ft 401 kts
2026-04-25 01:59 23.16418 120.21629 23500 ft 408 kts 10°
2026-04-25 01:59 23.19134 120.22571 23873 ft 413 kts 12°
2026-04-25 02:00 23.21891 120.23578 24258 ft 416 kts 13°
2026-04-25 02:00 23.24650 120.24592 24623 ft 419 kts 12°
2026-04-25 02:00 23.27426 120.25610 24956 ft 424 kts 12°
2026-04-25 02:00 23.30228 120.26633 25272 ft 428 kts 12°
2026-04-25 02:01 23.33072 120.27670 25625 ft 431 kts 12°
2026-04-25 02:01 23.35918 120.28705 25947 ft 435 kts 12°
2026-04-25 02:01 23.38827 120.29764 26286 ft 439 kts 12°
2026-04-25 02:01 23.41728 120.30819 26627 ft 442 kts 12°
2026-04-25 02:02 23.44675 120.31891 26935 ft 446 kts 12°
2026-04-25 02:02 23.47662 120.32978 27307 ft 448 kts 12°
2026-04-25 02:02 23.50604 120.34052 27666 ft 450 kts 12°
2026-04-25 02:02 23.53627 120.35154 27996 ft 454 kts 12°
2026-04-25 02:03 23.56640 120.36252 28317 ft 457 kts 12°
2026-04-25 02:03 23.59643 120.37347 28607 ft 461 kts 12°
2026-04-25 02:03 23.62695 120.38456 28892 ft 464 kts 12°
2026-04-25 02:03 23.65803 120.39584 29168 ft 467 kts 12°
2026-04-25 02:04 23.68884 120.40704 29469 ft 470 kts 12°
2026-04-25 02:04 23.71992 120.41836 29782 ft 472 kts 12°
2026-04-25 02:04 23.75123 120.42979 30044 ft 475 kts 12°
2026-04-25 02:04 23.78270 120.44123 30284 ft 479 kts 12°
2026-04-25 02:05 23.81430 120.45274 30528 ft 482 kts 12°
2026-04-25 02:05 23.84644 120.46505 30767 ft 488 kts 15°
2026-04-25 02:05 23.87770 120.48008 31013 ft 495 kts 21°
2026-04-25 02:05 23.90803 120.49843 31238 ft 502 kts 27°
2026-04-25 02:06 23.93703 120.52023 31530 ft 507 kts 33°
2026-04-25 02:06 23.96402 120.54494 31732 ft 512 kts 39°
2026-04-25 02:06 23.99008 120.57206 32004 ft 515 kts 41°
2026-04-25 02:06 24.01562 120.59959 32280 ft 517 kts 42°
2026-04-25 02:07 24.04116 120.62720 32608 ft 518 kts 42°
2026-04-25 02:07 24.06697 120.65492 32837 ft 519 kts 42°
2026-04-25 02:07 24.09266 120.68246 33099 ft 520 kts 42°
2026-04-25 02:07 24.11864 120.71020 33452 ft 519 kts 42°
2026-04-25 02:08 24.14458 120.73766 33819 ft 519 kts 41°
2026-04-25 02:08 24.17073 120.76527 34117 ft 518 kts 41°
2026-04-25 02:08 24.19664 120.79264 34402 ft 518 kts 41°
2026-04-25 02:08 24.22246 120.81995 34639 ft 520 kts 41°
2026-04-25 02:09 24.24858 120.84764 34737 ft 523 kts 41°
2026-04-25 02:09 24.30132 120.90364 34925 ft 530 kts 41°
2026-04-25 02:09 24.32790 120.93187 35035 ft 534 kts 41°
2026-04-25 02:10 24.35466 120.96036 35173 ft 537 kts 41°
2026-04-25 02:10 24.40814 121.01816 35345 ft 544 kts 44°
2026-04-25 02:11 24.45731 121.08151 35605 ft 549 kts 50°
2026-04-25 02:11 24.48098 121.11433 35707 ft 552 kts 50°
2026-04-25 02:11 24.50470 121.14748 35859 ft 552 kts 50°
2026-04-25 02:11 24.52870 121.18095 36106 ft 551 kts 50°
2026-04-25 02:12 24.55241 121.21388 36279 ft 551 kts 50°
2026-04-25 02:12 24.57611 121.24675 36433 ft 551 kts 50°
2026-04-25 02:12 24.60004 121.27982 36568 ft 552 kts 50°
2026-04-25 02:13 24.64776 121.34578 36786 ft 554 kts 50°
2026-04-25 02:13 24.67190 121.37915 36990 ft 553 kts 50°
2026-04-25 02:13 24.69559 121.41200 37118 ft 553 kts 49°
2026-04-25 02:14 24.74351 121.47856 37114 ft 552 kts 50°
2026-04-25 02:14 24.79106 121.54467 37092 ft 553 kts 50°
2026-04-25 02:15 24.83882 121.61109 37085 ft 554 kts 50°
2026-04-25 02:15 24.88638 121.67744 37075 ft 554 kts 50°
2026-04-25 02:16 24.93599 121.74273 37080 ft 554 kts 47°
2026-04-25 02:16 24.98662 121.80689 37084 ft 555 kts 47°
2026-04-25 02:17 25.03719 121.87103 37077 ft 553 kts 47°
2026-04-25 02:17 25.08726 121.93497 37079 ft 552 kts 47°
2026-04-25 02:18 25.13743 121.99878 37079 ft 554 kts 47°
2026-04-25 02:18 25.18761 122.06354 37076 ft 554 kts 47°
2026-04-25 02:19 25.23764 122.12848 37076 ft 554 kts 48°
2026-04-25 02:19 25.28751 122.19327 37074 ft 554 kts 47°
2026-04-25 02:20 25.33737 122.25823 37078 ft 556 kts 47°
2026-04-25 02:20 25.38751 122.32359 37077 ft 556 kts 47°
2026-04-25 02:21 25.43751 122.38888 37070 ft 555 kts 47°
2026-04-25 02:21 25.48720 122.45382 37077 ft 557 kts 48°
2026-04-25 02:22 25.53757 122.51951 37072 ft 556 kts 47°
2026-04-25 02:22 25.58754 122.58434 37082 ft 557 kts 47°
2026-04-25 02:23 25.63801 122.64990 37077 ft 559 kts 47°
2026-04-25 02:23 25.68811 122.71552 37080 ft 559 kts 48°
2026-04-25 02:24 25.73811 122.78099 37081 ft 559 kts 48°
2026-04-25 02:24 25.78854 122.84693 37086 ft 560 kts 48°
2026-04-25 02:25 25.83856 122.91241 37087 ft 559 kts 48°
2026-04-25 02:25 25.88882 122.97819 37088 ft 560 kts 48°
2026-04-25 02:26 25.93890 123.04405 37080 ft 560 kts 47°
2026-04-25 02:26 25.98929 123.11031 37073 ft 561 kts 48°
2026-04-25 02:27 26.03959 123.17664 37076 ft 561 kts 48°
2026-04-25 02:27 26.08986 123.24307 37069 ft 560 kts 48°
2026-04-25 02:28 26.13985 123.30880 37073 ft 560 kts 47°
2026-04-25 02:28 26.19006 123.37483 37091 ft 560 kts 48°
2026-04-25 02:29 26.24039 123.44144 37097 ft 560 kts 48°
2026-04-25 02:29 26.29034 123.50775 37071 ft 560 kts 47°
2026-04-25 02:30 26.34033 123.57419 37072 ft 560 kts 48°
2026-04-25 02:30 26.38997 123.64029 37092 ft 560 kts 47°
2026-04-25 02:31 26.44017 123.70730 37080 ft 562 kts 49°
2026-04-25 02:31 26.48988 123.77407 37084 ft 561 kts 49°
2026-04-25 02:32 26.53967 123.84067 37077 ft 561 kts 49°
2026-04-25 02:32 26.58976 123.90771 37094 ft 562 kts 49°
2026-04-25 02:33 26.63969 123.97470 37080 ft 562 kts 48°
2026-04-25 02:33 26.68965 124.04164 37097 ft 562 kts 49°
2026-04-25 02:34 26.73979 124.10870 37084 ft 562 kts 49°
2026-04-25 02:34 26.78954 124.17548 37095 ft 562 kts 49°
2026-04-25 02:35 26.83947 124.24243 37078 ft 561 kts 49°
2026-04-25 02:35 26.88931 124.30940 37093 ft 561 kts 49°
2026-04-25 02:36 26.93932 124.37677 37084 ft 562 kts 48°
2026-04-25 02:36 26.98909 124.44381 37080 ft 562 kts 48°
2026-04-25 02:37 27.03888 124.51106 37096 ft 561 kts 48°
2026-04-25 02:37 27.08912 124.57898 37091 ft 562 kts 48°
2026-04-25 02:38 27.13892 124.64605 37080 ft 563 kts 48°
2026-04-25 02:38 27.18905 124.71399 37072 ft 563 kts 49°
2026-04-25 02:39 27.23904 124.78198 37075 ft 563 kts 49°
2026-04-25 02:39 27.28871 124.84961 37074 ft 562 kts 49°
2026-04-25 02:40 27.33850 124.91734 37074 ft 564 kts 49°
2026-04-25 02:40 27.38853 124.98570 37083 ft 564 kts 49°
2026-04-25 02:41 27.43848 125.05337 37079 ft 564 kts 49°
2026-04-25 02:41 27.48856 125.12083 37079 ft 563 kts 48°
2026-04-25 02:42 27.53889 125.18867 37087 ft 565 kts 49°
2026-04-25 02:42 27.58913 125.25668 37082 ft 564 kts 48°
2026-04-25 02:43 27.63897 125.32429 37084 ft 565 kts 48°
2026-04-25 02:43 27.68928 125.39263 37080 ft 565 kts 49°
2026-04-25 02:44 27.73929 125.46067 37085 ft 566 kts 48°
2026-04-25 02:44 27.78959 125.52912 37090 ft 568 kts 48°
2026-04-25 02:45 27.83997 125.59790 37088 ft 568 kts 49°
2026-04-25 02:45 27.89018 125.66650 37085 ft 569 kts 49°
2026-04-25 02:46 27.94035 125.73560 37087 ft 569 kts 49°
2026-04-25 02:46 27.99051 125.80459 37087 ft 569 kts 50°
2026-04-25 02:47 28.04099 125.87396 37115 ft 571 kts 50°
2026-04-25 02:47 28.09129 125.94323 37085 ft 570 kts 49°
2026-04-25 02:48 28.14163 126.01223 37092 ft 571 kts 49°
2026-04-25 02:48 28.19215 126.08148 37080 ft 571 kts 49°
2026-04-25 02:49 28.24245 126.15090 37092 ft 571 kts 49°
2026-04-25 02:49 28.29274 126.22051 37102 ft 570 kts 49°
2026-04-25 02:50 28.34315 126.29053 37090 ft 571 kts 49°
2026-04-25 02:50 28.39308 126.35983 37094 ft 571 kts 49°
2026-04-25 02:51 28.44348 126.42996 37084 ft 572 kts 49°
2026-04-25 02:51 28.49374 126.50004 37108 ft 573 kts 48°
2026-04-25 02:52 28.54387 126.56996 37069 ft 572 kts 49°
2026-04-25 02:52 28.59414 126.64031 37072 ft 572 kts 49°
2026-04-25 02:53 28.64439 126.71082 37074 ft 573 kts 49°
2026-04-25 02:53 28.69432 126.78120 37070 ft 572 kts 50°
2026-04-25 02:54 28.74406 126.85130 37072 ft 573 kts 49°
2026-04-25 02:54 28.79435 126.92212 37070 ft 573 kts 50°
2026-04-25 02:55 28.84415 126.99233 37070 ft 572 kts 49°
2026-04-25 02:55 28.89415 127.06296 37070 ft 573 kts 49°
2026-04-25 02:56 28.94402 127.13340 37073 ft 574 kts 49°
2026-04-25 02:56 28.99394 127.20425 37071 ft 572 kts 49°
2026-04-25 02:57 29.04360 127.27475 37050 ft 572 kts 49°
2026-04-25 02:57 29.09347 127.34566 37065 ft 573 kts 49°
2026-04-25 02:58 29.14362 127.41670 37052 ft 572 kts 49°
2026-04-25 02:58 29.19314 127.48713 37053 ft 573 kts 50°
2026-04-25 02:59 29.24324 127.55856 37051 ft 573 kts 50°
2026-04-25 02:59 29.29277 127.62964 37048 ft 573 kts 50°
2026-04-25 03:00 29.34224 127.70074 37043 ft 573 kts 50°
2026-04-25 03:00 29.39200 127.77266 37045 ft 574 kts 50°
2026-04-25 03:01 29.44133 127.84373 37038 ft 572 kts 50°
2026-04-25 03:01 29.49098 127.91524 37039 ft 573 kts 50°
2026-04-25 03:02 29.54017 127.98636 37035 ft 572 kts 50°
2026-04-25 03:02 29.58954 128.05772 37030 ft 573 kts 51°
2026-04-25 03:03 29.63908 128.12942 37031 ft 573 kts 50°
2026-04-25 03:03 29.68839 128.20102 37021 ft 574 kts 50°
2026-04-25 03:04 29.73803 128.27315 37041 ft 574 kts 50°
2026-04-25 03:04 29.78720 128.34470 37034 ft 573 kts 50°
2026-04-25 03:05 29.86174 128.45343 37039 ft 576 kts 50°
2026-04-25 03:05 29.91123 128.52583 37050 ft 578 kts 50°
2026-04-25 03:06 29.96108 128.59880 37038 ft 579 kts 50°
2026-04-25 03:06 30.01074 128.67172 37058 ft 581 kts 50°
2026-04-25 03:07 30.06026 128.74490 37051 ft 579 kts 51°
2026-04-25 03:07 30.10993 128.81824 37050 ft 580 kts 50°
2026-04-25 03:08 30.15968 128.89111 37050 ft 578 kts 51°
2026-04-25 03:08 30.20938 128.96446 37041 ft 579 kts 51°
2026-04-25 03:09 30.25877 129.03757 37076 ft 580 kts 51°
2026-04-25 03:09 30.30830 129.11098 37062 ft 579 kts 51°
2026-04-25 03:10 30.35776 129.18454 37042 ft 580 kts 51°
2026-04-25 03:10 30.40732 129.25838 37074 ft 581 kts 51°
2026-04-25 03:11 30.45681 129.33221 37073 ft 581 kts 51°
2026-04-25 03:11 30.50600 129.40581 37045 ft 580 kts 51°
2026-04-25 03:12 30.55558 129.48007 37055 ft 582 kts 51°
2026-04-25 03:12 30.60510 129.55437 37076 ft 581 kts 50°
2026-04-25 03:13 30.65422 129.62828 37062 ft 580 kts 51°
2026-04-25 03:13 30.70350 129.70259 37057 ft 582 kts 51°
2026-04-25 03:14 30.75268 129.77708 37065 ft 584 kts 51°
2026-04-25 03:14 30.80220 129.85193 37067 ft 583 kts 51°
2026-04-25 03:15 30.85053 129.92740 37050 ft 585 kts 56°
2026-04-25 03:15 30.89380 130.00708 37052 ft 586 kts 59°
2026-04-25 03:16 30.93612 130.08791 37057 ft 586 kts 58°
2026-04-25 03:16 30.97870 130.16881 37087 ft 587 kts 59°
2026-04-25 03:17 31.02177 130.25023 37081 ft 586 kts 58°
2026-04-25 03:17 31.06420 130.33058 37077 ft 586 kts 58°
2026-04-25 03:18 31.10709 130.41173 37066 ft 587 kts 58°
2026-04-25 03:18 31.14977 130.49243 37060 ft 585 kts 57°
2026-04-25 03:19 31.19235 130.57314 37091 ft 585 kts 58°
2026-04-25 03:19 31.23493 130.65436 37088 ft 585 kts 58°
2026-04-25 03:20 31.27702 130.73509 37084 ft 585 kts 58°
2026-04-25 03:20 31.31912 130.81610 37090 ft 584 kts 59°
2026-04-25 03:21 31.36144 130.89752 37084 ft 585 kts 58°
2026-04-25 03:21 31.40364 130.97873 37086 ft 585 kts 58°
2026-04-25 03:22 31.44574 131.06000 37093 ft 585 kts 58°
2026-04-25 03:22 31.48781 131.14130 37092 ft 584 kts 58°
2026-04-25 03:23 31.52988 131.22275 37075 ft 584 kts 58°
2026-04-25 03:23 31.57150 131.30371 37093 ft 583 kts 58°
2026-04-25 03:24 31.61343 131.38513 37106 ft 583 kts 58°
2026-04-25 03:24 31.65521 131.46677 37119 ft 585 kts 58°
2026-04-25 03:25 31.69689 131.54833 37121 ft 584 kts 59°
2026-04-25 03:25 31.73872 131.63037 37124 ft 584 kts 58°
2026-04-25 03:26 31.78029 131.71216 37117 ft 584 kts 59°
2026-04-25 03:26 31.82164 131.79390 37116 ft 584 kts 59°
2026-04-25 03:27 31.86303 131.87563 37111 ft 585 kts 59°
2026-04-25 03:27 31.90444 131.95744 37109 ft 584 kts 59°
2026-04-25 03:28 31.94607 132.03995 37110 ft 584 kts 58°
2026-04-25 03:28 31.98736 132.12195 37113 ft 589 kts 58°
2026-04-25 03:29 32.02918 132.20511 37112 ft 590 kts 58°
2026-04-25 03:29 32.07073 132.28790 37094 ft 590 kts 59°
2026-04-25 03:30 32.11650 132.36800 37078 ft 587 kts 50°
2026-04-25 03:30 32.17101 132.43886 37110 ft 582 kts 38°
2026-04-25 03:31 32.23235 132.49986 37144 ft 577 kts 32°
2026-04-25 03:31 32.29579 132.55838 37127 ft 575 kts 32°
2026-04-25 03:32 32.35827 132.61679 37078 ft 576 kts 32°
2026-04-25 03:32 32.42064 132.67604 37122 ft 574 kts 33°
2026-04-25 03:33 32.48259 132.73531 37103 ft 577 kts 33°
2026-04-25 03:33 32.54474 132.79471 37126 ft 576 kts 33°
2026-04-25 03:34 32.60724 132.85445 37129 ft 576 kts 32°
2026-04-25 03:34 32.66937 132.91383 37120 ft 576 kts 33°
2026-04-25 03:35 32.73056 132.97519 37153 ft 580 kts 38°
2026-04-25 03:35 32.78541 133.04581 37123 ft 586 kts 49°
2026-04-25 03:36 32.83316 133.12448 37015 ft 588 kts 53°
2026-04-25 03:36 32.85638 133.16464 36530 ft 587 kts 53°
2026-04-25 03:36 32.87935 133.20436 35949 ft 582 kts 53°
2026-04-25 03:37 32.90220 133.24345 35279 ft 579 kts 53°
2026-04-25 03:37 32.92510 133.28236 34539 ft 578 kts 52°
2026-04-25 03:37 32.94815 133.32134 33707 ft 579 kts 52°
2026-04-25 03:37 32.97153 133.36075 32851 ft 580 kts 52°
2026-04-25 03:38 32.99476 133.39987 32038 ft 581 kts 53°
2026-04-25 03:38 33.01780 133.43895 31267 ft 579 kts 53°
2026-04-25 03:38 33.04089 133.47819 30508 ft 578 kts 53°
2026-04-25 03:38 33.06377 133.51712 29995 ft 570 kts 53°
2026-04-25 03:39 33.08604 133.55512 29560 ft 561 kts 54°
2026-04-25 03:39 33.10831 133.59309 29117 ft 553 kts 54°
2026-04-25 03:39 33.13018 133.63013 28683 ft 544 kts 53°
2026-04-25 03:39 33.15172 133.66675 28282 ft 535 kts 54°
2026-04-25 03:40 33.17266 133.70261 27877 ft 527 kts 54°
2026-04-25 03:40 33.19341 133.73824 27437 ft 518 kts 53°
2026-04-25 03:40 33.21398 133.77348 27006 ft 510 kts 53°
2026-04-25 03:40 33.23416 133.80814 26579 ft 502 kts 53°
2026-04-25 03:41 33.25406 133.84230 26159 ft 495 kts 53°
2026-04-25 03:41 33.27359 133.87581 25710 ft 488 kts 53°
2026-04-25 03:41 33.29276 133.90878 25297 ft 481 kts 53°
2026-04-25 03:41 33.31156 133.94112 24869 ft 474 kts 53°
2026-04-25 03:42 33.33007 133.97298 24463 ft 467 kts 53°
2026-04-25 03:42 33.34861 134.00491 24042 ft 461 kts 53°
2026-04-25 03:42 33.36676 134.03627 23619 ft 454 kts 53°
2026-04-25 03:42 33.38472 134.06726 23200 ft 448 kts 53°
2026-04-25 03:43 33.40214 134.09732 22831 ft 441 kts 52°
2026-04-25 03:43 33.41945 134.12726 22588 ft 430 kts 53°
2026-04-25 03:43 33.43637 134.15654 22343 ft 427 kts 52°
2026-04-25 03:43 33.45326 134.18571 22097 ft 426 kts 52°
2026-04-25 03:44 33.47000 134.21472 21850 ft 423 kts 53°
2026-04-25 03:44 33.48660 134.24352 21458 ft 419 kts 53°
2026-04-25 03:44 33.50317 134.27229 20965 ft 416 kts 52°
2026-04-25 03:44 33.51955 134.30072 20520 ft 413 kts 53°
2026-04-25 03:45 33.53572 134.32880 20201 ft 409 kts 53°
2026-04-25 03:45 33.55173 134.35666 20129 ft 410 kts 53°
2026-04-25 03:45 33.56796 134.38490 20052 ft 406 kts 53°
2026-04-25 03:45 33.58381 134.41260 19562 ft 408 kts 52°
2026-04-25 03:46 33.60007 134.44063 18852 ft 411 kts 50°
2026-04-25 03:46 33.61960 134.46535 18359 ft 403 kts 35°
2026-04-25 03:46 33.64236 134.48370 17962 ft 392 kts 25°
2026-04-25 03:46 33.66584 134.49947 17514 ft 388 kts 24°
2026-04-25 03:47 33.68955 134.51483 17062 ft 385 kts 24°
2026-04-25 03:47 33.71291 134.53008 16657 ft 381 kts 24°
2026-04-25 03:47 33.73586 134.54518 16270 ft 376 kts 25°
2026-04-25 03:47 33.75876 134.56039 15853 ft 372 kts 25°
2026-04-25 03:48 33.78134 134.57553 15435 ft 367 kts 25°
2026-04-25 03:48 33.80348 134.59036 15056 ft 363 kts 25°
2026-04-25 03:48 33.82529 134.60504 14645 ft 359 kts 26°
2026-04-25 03:48 33.84708 134.61969 14217 ft 355 kts 26°
2026-04-25 03:49 33.86826 134.63396 13820 ft 350 kts 26°
2026-04-25 03:49 33.88952 134.64828 13436 ft 345 kts 26°
2026-04-25 03:49 33.91026 134.66237 13055 ft 340 kts 28°
2026-04-25 03:49 33.93064 134.67627 12618 ft 336 kts 28°
2026-04-25 03:50 33.95095 134.69009 12177 ft 332 kts 28°
2026-04-25 03:50 33.97091 134.70363 11729 ft 329 kts 28°
2026-04-25 03:50 33.99065 134.71706 11279 ft 325 kts 30°
2026-04-25 03:50 34.01032 134.73030 10860 ft 320 kts 27°
2026-04-25 03:51 34.03023 134.74184 10604 ft 310 kts 25°
2026-04-25 03:51 34.04932 134.75229 10403 ft 299 kts 25°
2026-04-25 03:51 34.06809 134.76253 10208 ft 289 kts 25°
2026-04-25 03:51 34.08617 134.77248 10002 ft 279 kts 26°
2026-04-25 03:52 34.10348 134.78207 9685 ft 275 kts 26°
2026-04-25 03:52 34.12105 134.79181 9267 ft 274 kts 26°
2026-04-25 03:52 34.13839 134.80144 8879 ft 273 kts 26°
2026-04-25 03:52 34.15544 134.81094 8521 ft 271 kts 26°
2026-04-25 03:53 34.17262 134.82054 8135 ft 269 kts 27°
2026-04-25 03:53 34.18966 134.83008 7745 ft 269 kts 27°
2026-04-25 03:53 34.20656 134.83958 7336 ft 269 kts 27°
2026-04-25 03:53 34.22354 134.84915 6955 ft 268 kts 27°
2026-04-25 03:54 34.24027 134.85857 6591 ft 266 kts 27°
2026-04-25 03:54 34.25695 134.86795 6277 ft 264 kts 26°
2026-04-25 03:54 34.27356 134.87730 5918 ft 263 kts 27°
2026-04-25 03:54 34.29029 134.88670 5551 ft 261 kts 27°
2026-04-25 03:55 34.30674 134.89600 5166 ft 260 kts 27°
2026-04-25 03:55 34.32303 134.90518 4800 ft 259 kts 27°
2026-04-25 03:55 34.33939 134.91438 4442 ft 258 kts 27°
2026-04-25 03:55 34.35555 134.92351 4095 ft 256 kts 27°
2026-04-25 03:56 34.37177 134.93266 4028 ft 257 kts 27°
2026-04-25 03:56 34.38793 134.94177 3998 ft 257 kts 27°
2026-04-25 03:56 34.40410 134.95093 3994 ft 257 kts 27°
2026-04-25 03:56 34.42055 134.96025 3979 ft 257 kts 27°
2026-04-25 03:57 34.43680 134.96945 3996 ft 258 kts 27°
2026-04-25 03:57 34.45206 134.98077 3990 ft 256 kts 40°
2026-04-25 03:57 34.46478 134.99556 4003 ft 254 kts 50°
2026-04-25 03:57 34.47623 135.01196 3999 ft 254 kts 52°
2026-04-25 03:58 34.48735 135.02841 3996 ft 255 kts 52°
2026-04-25 03:58 34.49865 135.04513 3995 ft 254 kts 51°
2026-04-25 03:58 34.50980 135.06157 4001 ft 254 kts 52°
2026-04-25 03:58 34.52106 135.07806 3996 ft 254 kts 52°
2026-04-25 03:59 34.53240 135.09471 3993 ft 254 kts 51°
2026-04-25 03:59 34.54358 135.11112 3989 ft 254 kts 51°
2026-04-25 03:59 34.55492 135.12772 3996 ft 254 kts 52°
2026-04-25 03:59 34.56609 135.14406 3986 ft 253 kts 51°
2026-04-25 04:00 34.57744 135.16074 3987 ft 253 kts 51°
2026-04-25 04:00 34.58875 135.17734 3987 ft 255 kts 51°
2026-04-25 04:00 34.59979 135.19426 3975 ft 254 kts 58°
2026-04-25 04:00 34.60593 135.21397 3701 ft 250 kts 82°
2026-04-25 04:01 34.60627 135.23476 3356 ft 248 kts 91°
2026-04-25 04:01 34.60565 135.25568 3044 ft 246 kts 92°
2026-04-25 04:01 34.60503 135.27652 3001 ft 245 kts 91°
2026-04-25 04:01 34.60451 135.29636 2982 ft 230 kts 91°
2026-04-25 04:02 34.60408 135.31532 2969 ft 213 kts 91°
2026-04-25 04:02 34.60368 135.33319 2981 ft 215 kts 91°
2026-04-25 04:02 34.60331 135.35138 2927 ft 211 kts 93°
2026-04-25 04:02 34.59916 135.36783 2746 ft 205 kts 128°
2026-04-25 04:03 34.58749 135.37689 2572 ft 202 kts 166°
2026-04-25 04:03 34.57340 135.37736 2296 ft 204 kts 180°
2026-04-25 04:03 34.55910 135.37524 2031 ft 206 kts 193°
2026-04-25 04:03 34.54551 135.36940 1996 ft 209 kts 199°
2026-04-25 04:04 34.53196 135.36285 1994 ft 209 kts 199°
2026-04-25 04:04 34.51834 135.35625 1999 ft 208 kts 198°
2026-04-25 04:04 34.50487 135.34982 2102 ft 207 kts 198°
2026-04-25 04:04 34.49321 135.34125 1971 ft 188 kts 219°
2026-04-25 04:05 34.48455 135.33002 1760 ft 174 kts 229°
2026-04-25 04:05 34.47733 135.31876 1493 ft 163 kts 231°
2026-04-25 04:05 34.47043 135.30811 1111 ft 158 kts 230°
2026-04-25 04:05 34.46354 135.29791 852 ft 153 kts 229°
2026-04-25 04:06 34.45696 135.28819 643 ft 149 kts 230°
2026-04-25 04:06 34.45041 135.27852 473 ft 147 kts 230°
2026-04-25 04:06 34.44395 135.26892 256 ft 145 kts 231°
2026-04-25 04:06 34.43756 135.25938 71 ft 143 kts 231°
2026-04-25 04:07 34.43153 135.25038 10 ft 126 kts 231°
2026-04-25 04:07 34.42704 135.24368 10 ft 78 kts 231°
2026-04-25 04:07 34.42498 135.24034 9 ft 39 kts 245°
2026-04-25 04:07 34.42451 135.23827 9 ft 11 kts 260°
2026-04-25 04:08 34.42468 135.23735 9 ft 11 kts 329°
2026-04-25 04:08 34.42538 135.23775 9 ft 12 kts 52°
2026-04-25 04:08 34.42565 135.23817 9 ft 6 kts 52°
2026-04-25 04:08 34.42595 135.23863 9 ft 7 kts 51°
2026-04-25 04:09 34.42647 135.23883 9 ft 7 kts 345°
2026-04-25 04:09 34.42652 135.23881 9 ft 0 kts 335°
2026-04-25 04:09 34.42659 135.23877 9 ft 3 kts 330°
2026-04-25 04:09 34.42696 135.23846 9 ft 7 kts 324°
2026-04-25 04:10 34.42744 135.23807 9 ft 8 kts 331°
2026-04-25 04:10 34.42795 135.23837 9 ft 9 kts 53°
2026-04-25 04:10 34.42838 135.23906 9 ft 10 kts 51°
2026-04-25 04:10 34.42889 135.23979 10 ft 12 kts 50°
2026-04-25 04:11 34.43014 135.24162 13 ft 13 kts 50°
2026-04-25 04:11 34.43070 135.24248 15 ft 12 kts 51°
2026-04-25 04:11 34.43122 135.24326 17 ft 11 kts 51°
2026-04-25 04:12 34.43174 135.24402 17 ft 11 kts 50°
2026-04-25 04:12 34.43228 135.24481 18 ft 12 kts 50°
2026-04-25 04:12 34.43285 135.24567 17 ft 14 kts 51°
2026-04-25 04:12 34.43351 135.24666 15 ft 16 kts 51°
2026-04-25 04:13 34.43426 135.24777 12 ft 18 kts 50°
2026-04-25 04:13 34.43495 135.24878 10 ft 5 kts 49°
2026-04-25 04:13 34.43530 135.24895 11 ft 3 kts 350°
2026-04-25 04:13 34.43541 135.24886 12 ft 0 kts 321°
2026-04-25 04:14 34.43553 135.24875 13 ft 2 kts 322°
2026-04-25 04:14 34.43565 135.24864 13 ft 1 kts 321°
2026-04-25 04:14 34.43570 135.24858 14 ft 0 kts 321°
2026-04-25 04:14 34.43573 135.24857 14 ft 0 kts 322°
2026-04-25 04:15 34.43575 135.24854 14 ft 0 kts 321°
2026-04-25 04:15 34.43576 135.24854 14 ft 0 kts 321°
2026-04-25 04:15 34.43584 135.24847 15 ft 0 kts 321°
2026-04-25 04:16 34.43583 135.24846 15 ft 0 kts 321°